SCP
0 0 0 0 0 0 0 0 0 0 0 0 0 0 0 0 0 0 0 0 0 0 0 0 0 0 0 0 0 0 0 0 0 0 0 0 0 0 0 0 0 0 0
0 0 0 0 0 0 0 0 0 0 0 0 0 0 0 0 0 0 0 0 0 0 0 0 0 0 0 0 0 0 0 0 0 0 0 0 0 0 0 0 0 0 0
0 0 0 0 0 0 0 0 0 0 0 0 0 0 0 0 0 0 0 0 0 0 0 0 0 0 0 0 0 0 0 0 0 0 0 0 0 0 0 0 0 0 0
0 0 0 0 0 0 0 0 0 0 0 0 0 0 0 0 0 0 0 0 0 0 0 0 0 0 0 0 0 0 0 0 0 0 0 0 0 0 0 0 0 0 0
0 0 0 0 0 0 0 0 0 0 0 0 0 0 0 0 0 0 0 0 0 0 0 0 0 0 0 0 0 0 0 0 0 0 0 0 0 0 0 0 0 0 0
0 0 0 0 0 0 0 0 0 0 0 0 0 0 0 0 0 0 0 0 0 0 0 0 0 0 0 0 0 0 0 0 0 0 0 0 0 0 0 0 0 0 0
0 0 0 0 0 0 0 0 0 0 0 0 0 0 0 0 0 0 0 0 0 0 0 0 0 0 0 0 0 0 0 0 0 0 0 0 0 0 0 0 0 0 0
0 0 0 0 0 0 0 0 0 0 0 0 0 0 0 0 0 0 0 0 0 0 0 0 0 0 0 0 0 0 0 0 0 0 0 0 0 0 0 0 0 0 0
0 0 0 0 0 0 0 0 0 0 0 0 0 0 0 0 0 0 0 0 0 0 0 0 0 0 0 0 0 0 0 0 0 0 0 0 0 0 0 0 0 0 0
0 0 0 0 0 0 0 0 0 0 0 0 0 0 0 0 0 0 0 0 0 0 0 0 0 0 0 0 0 0 0 0 0 0 0 0 0 0 0 0 0 0 0
0 0 0 0 0 0 0 0 0 0 0 0 0 0 0 0 0 0 0 0 0 0 0 0 0 0 0 0 0 0 0 0 0 0 0 0 0 0 0 0 0 0 0
0 0 0 0 0 0 0 0 0 0 0 0 0 0 0 0 0 0 0 0 0 0 0 0 0 0 0 0 0 0 0 0 0 0 0 0 0 0 0 0 0 0 0
0 0 0 0 0 0 0 0 0 0 0 0 0 0 0 0 0 0 0 0 0 0 0 0 0 0 0 0 0 0 0 0 0 0 0 0 0 0 0 0 0 0 0
0 0 0 0 0 0 0 0 0 0 0 0 0 0 0 0 0 0 0 0 0 0 0 0 0 0 0 0 0 0 0 0 0 0 0 0 0 0 0 0 0 0 0
0 0 0 0 0 0 0 0 0 0 0 0 0 0 0 0 0 0 0 0 0 0 0 0 0 0 0 0 0 0 0 0 0 0 0 0 0 0 0 0 0 0 0
0 0 0 0 0 0 0 0 0 0 0 0 0 0 0 0 0 0 0 0 0 0 0 0 0 0 0 0 0 0 0 0 0 0 0 0 0 0 0 0 0 0 0
0 0 0 0 0 0 0 0 0 0 0 0 0 0 0 0 0 0 0 0 0 0 0 0 0 0 0 0 0 0 0 0 0 0 0 0 0 0 0 0 0 0 0
0 0 0 0 0 0 0 0 0 0 0 0 0 0 0 0 0 0 0 0 0 0 0 0 0 0 0 0 0 0 0 0 0 0 0 0 0 0 0 0 0 0 0
0 0 0 0 0 0 0 0 0 0 0 0 0 0 0 0 0 0 0 0 0 0 0 0 0 0 0 0 0 0 0 0 0 0 0 0 0 0 0 0 0 0 0
0 0 0 0 0 0 0 0 0 0 0 0 0 0 0 0 0 0 0 0 0 0 0 0 0 0 0 0 0 0 0 0 0 0 0 0 0 0 0 0 0 0 0
0 0 0 0 0 0 0 0 0 0 0 0 0 0 0 0 0 0 0 0 0 0 0 0 0 0 0 0 0 0 0 0 0 0 0 0 0 0 0 0 0 0 0
0 0 0 0 0 0 0 0 0 0 0 0 0 0 0 0 0 0 0 0 0 0 0 0 0 0 0 0 0 0 0 0 0 0 0 0 0 0 0 0 0 0 0
0 0 0 0 0 0 0 0 0 0 0 0 0 0 0 0 0 0 0 0 0 0 0 0 0 0 0 0 0 0 0 0 0 0 0 0 0 0 0 0 0 0 0
0 0 0 0 0 0 0 0 0 0 0 0 0 0 0 0 0 0 0 0 0 0 0 0 0 0 0 0 0 0 0 0 0 0 0 0 0 0 0 0 0 0 0
0 0 0 0 0 0 0 0 0 0 0 0 0 0 0 0 0 0 0 0 0 0 0 0 0 0 0 0 0 0 0 0 0 0 0 0 0 0 0 0 0 0 0
0 0 0 0 0 0 0 0 0 0 0 0 0 0 0 0 0 0 0 0 0 0 0 0 0 0 0 0 0 0 0 0 0 0 0 0 0 0 0 0 0 0 0
Wind_Speed
3 2 2 2 2 1 1 1 1 2 2 2 2 2 2 2 2 2 1 3 5 6 7 8 8 8 9 9 9 9 10 10 11 11 12 12 12 13 13 13 14 14 15
3 2 2 2 2 1 1 1 2 1 1 2 2 2 2 2 2 2 2 1 3 5 7 8 9 9 10 10 10 10 11 11 11 12 12 13 13 13 14 14 14 14 15
3 2 2 2 2 1 1 1 2 1 1 1 2 2 2 2 2 2 3 3 2 3 6 8 9 10 10 11 11 11 12 12 12 13 13 14 14 14 15 15 15 15 15
3 2 2 2 2 1 1 1 1 1 1 2 2 2 2 2 2 2 2 3 3 3 4 7 9 10 10 11 12 12 13 13 13 14 14 15 15 16 16 16 16 16 16
3 2 2 2 1 1 1 1 2 2 2 2 2 2 3 2 2 2 3 3 3 4 4 5 7 8 10 11 12 13 13 14 14 14 14 15 16 16 17 17 16 17 17
3 2 2 2 1 1 1 1 2 2 2 2 2 2 2 2 2 2 3 3 4 5 5 6 5 5 8 11 12 13 14 14 15 15 15 15 16 16 17 17 17 17 18
3 2 2 1 1 1 1 1 1 1 2 2 2 2 1 2 2 2 3 3 4 5 6 6 5 6 5 9 10 12 14 15 16 16 16 16 16 16 18 18 18 18 18
3 2 2 1 1 1 1 1 1 1 1 2 3 3 2 1 1 2 3 4 5 5 6 7 7 7 7 6 7 12 14 16 17 17 16 16 17 18 18 19 18 19 19
3 2 2 1 1 1 0 0 0 1 1 1 2 3 3 3 4 2 3 4 5 5 6 6 7 7 8 6 7 9 13 16 17 17 17 17 17 18 19 19 18 18 19
3 3 2 2 1 1 1 0 0 1 1 1 1 1 2 3 4 4 3 4 6 6 7 7 7 7 7 7 8 12 14 16 17 18 18 18 18 18 18 17 18 18 18
3 3 3 2 2 1 1 0 0 0 1 1 1 1 2 2 4 4 6 6 6 5 6 7 6 6 7 7 7 10 14 16 16 17 17 17 18 18 18 18 18 18 18
3 3 3 2 2 1 1 1 1 1 1 1 1 1 2 3 3 4 6 7 7 6 7 6 6 6 6 7 9 12 14 15 16 16 17 17 17 18 18 18 18 19 19
3 4 3 3 2 2 2 1 1 1 2 2 2 2 2 3 4 4 6 7 8 7 7 5 5 5 6 7 8 12 13 15 15 16 17 17 17 17 18 18 18 19 19
4 4 4 3 3 2 2 2 2 2 2 2 2 3 3 3 3 4 5 6 8 7 6 7 6 5 6 7 9 13 11 14 16 16 17 17 17 17 17 17 18 18 18
3 4 4 4 3 3 3 2 2 2 2 2 3 3 3 3 4 4 5 5 6 8 8 7 6 7 7 8 9 10 11 13 16 17 17 17 16 16 16 17 17 18 18
4 4 4 4 3 3 3 3 2 2 3 3 3 4 4 3 4 4 5 5 6 7 9 8 8 9 10 8 11 11 11 15 15 16 16 16 16 16 16 16 17 17 17
4 4 4 4 3 3 3 3 3 3 3 3 3 4 5 5 4 4 5 5 5 6 10 10 9 10 12 12 10 10 10 10 9 14 16 16 16 16 15 16 16 15 15
4 4 4 4 3 3 3 3 3 3 4 4 4 5 5 4 6 5 5 6 6 7 9 12 10 10 12 12 11 12 10 9 9 12 15 15 16 15 15 15 14 14 14
4 4 4 4 3 3 3 3 3 4 4 4 5 5 6 6 6 5 6 6 6 6 7 9 10 9 9 9 11 11 11 9 9 10 12 13 14 14 14 13 13 13 13
4 4 3 3 3 3 3 3 3 4 4 4 5 5 6 6 7 7 6 7 7 7 7 8 8 8 8 9 9 9 10 9 9 9 10 10 12 12 12 12 12 12 12
4 3 3 2 2 2 2 3 3 4 4 4 5 5 6 6 8 7 6 7 7 6 7 7 8 8 8 8 8 8 9 10 10 7 8 8 7 7 7 8 9 11 12
3 3 3 3 2 2 2 3 3 3 4 4 5 5 5 6 7 9 10 10 9 8 8 7 7 8 10 9 9 8 9 9 8 6 8 8 7 6 6 5 9 11 11
3 3 3 3 3 2 2 3 4 3 4 4 5 5 5 5 7 6 7 9 9 10 10 9 9 10 10 10 10 10 9 9 9 8 8 7 6 6 6 6 9 10 10
3 2 2 2 2 2 2 2 3 3 3 4 4 5 6 6 5 7 7 7 8 7 8 8 8 9 9 9 9 9 9 9 8 6 6 6 6 6 7 6 7 9 10
2 2 2 2 2 2 1 2 3 3 3 4 4 5 5 6 7 9 7 7 8 7 6 8 10 10 12 11 9 6 6 6 6 6 4 4 5 6 6 5 5 8 10
2 2 1 2 2 2 1 2 3 2 3 3 4 4 5 6 8 9 7 7 7 8 8 8 7 7 7 7 9 6 5 5 6 5 4 4 5 5 5 4 5 6 7
Wind_Direction
110 104 91 79 70 56 47 26 27 29 16 15 3 348 339 327 321 321 6 20 351 342 338 334 331 329 326 322 320 315 311 308 306 304 302 297 291 287 284 282 280 277 277
113 112 105 86 70 50 30 17 25 8 6 4 358 353 334 323 321 315 320 343 358 340 335 332 330 327 326 323 319 316 312 308 306 304 302 298 294 290 284 281 280 279 277
118 116 104 91 66 48 34 25 32 8 8 1 359 355 340 326 320 324 326 324 335 351 339 332 331 329 327 323 320 316 313 309 305 302 299 295 293 289 287 284 282 280 278
119 116 106 85 60 45 35 34 11 9 6 350 346 346 331 319 316 327 331 333 331 335 343 346 337 330 327 323 319 317 314 313 309 303 298 295 292 290 286 284 284 283 281
128 122 104 89 80 57 40 32 21 360 356 350 340 333 326 314 318 315 328 333 336 329 325 336 332 328 326 323 321 318 316 314 310 306 303 297 292 291 289 285 283 283 282
136 124 115 103 90 83 55 35 38 16 354 340 324 320 314 313 301 317 322 327 326 327 326 326 321 324 328 324 321 319 316 314 309 306 305 301 298 295 293 289 286 285 283
141 134 126 122 117 89 56 38 28 22 8 339 308 313 289 272 295 308 311 318 321 322 321 323 321 321 319 323 321 321 319 317 313 308 305 302 300 299 295 291 287 284 283
151 149 146 144 138 127 98 57 19 352 8 348 320 307 303 265 262 306 306 311 316 319 318 320 319 317 316 315 321 320 319 316 313 308 305 303 301 299 297 292 289 286 284
162 163 168 159 154 182 160 57 335 319 338 358 344 320 311 314 319 286 305 306 314 316 315 319 317 318 315 313 313 318 318 316 314 311 306 304 302 300 299 295 291 290 288
171 173 176 177 175 185 178 190 298 305 288 313 347 335 316 313 301 304 296 304 313 312 314 315 314 314 313 311 310 313 317 314 314 313 309 309 306 302 301 302 297 295 294
177 179 181 182 186 191 187 195 211 255 276 288 298 299 288 282 278 287 297 307 310 309 312 309 306 310 312 310 310 317 318 315 318 316 313 310 307 307 305 303 302 296 294
179 182 186 189 192 192 192 206 216 227 247 259 270 273 281 284 295 293 293 303 307 308 307 301 301 308 314 314 316 323 319 316 316 314 313 312 310 308 305 303 302 299 295
186 189 190 194 194 195 196 203 218 230 236 248 261 271 274 279 286 288 287 295 301 302 300 294 304 310 314 315 315 321 314 314 314 313 312 311 310 308 306 305 303 302 298
189 187 193 198 200 201 202 206 219 233 243 251 263 270 273 276 278 279 284 294 298 296 294 301 308 310 316 312 313 310 307 312 313 311 309 309 309 309 309 306 305 303 301
182 186 193 197 197 203 210 215 227 234 250 261 266 271 276 278 277 279 279 281 287 296 300 307 310 311 312 309 309 306 308 312 309 308 308 308 307 307 307 306 306 304 303
179 182 189 192 194 201 208 219 234 243 256 264 270 274 279 279 279 277 274 273 273 280 287 298 306 307 310 307 309 309 309 308 304 306 308 308 307 307 306 306 306 305 303
179 184 187 189 194 204 213 224 239 247 258 269 271 275 281 282 280 279 276 272 271 274 280 290 299 306 309 310 312 312 309 309 306 306 308 308 309 308 308 307 307 307 307
179 183 184 189 197 208 219 231 245 250 261 271 277 280 283 283 281 282 281 278 277 277 281 290 299 307 308 310 312 314 313 310 307 310 310 310 312 311 312 313 313 312 311
177 179 185 194 203 214 227 240 253 256 262 270 275 279 283 284 283 286 286 285 284 284 282 287 295 302 304 311 315 313 314 312 311 310 308 310 311 314 316 315 316 317 317
178 181 190 199 209 219 230 243 257 262 268 275 277 278 280 281 284 289 289 290 292 293 291 290 292 300 306 313 314 315 316 318 315 313 313 314 314 316 318 321 322 322 322
179 182 188 196 208 219 229 254 265 266 271 279 282 281 280 287 292 291 292 297 298 294 294 293 294 301 307 315 315 315 313 316 314 317 319 320 319 318 321 324 326 332 333
176 180 189 197 210 223 247 268 279 267 271 276 285 290 290 285 290 290 293 297 297 292 294 293 294 297 304 309 311 312 314 315 314 326 320 314 319 318 324 324 334 337 338
177 186 193 200 219 235 244 265 284 278 273 278 286 293 298 298 297 295 297 296 294 288 284 285 289 295 301 307 310 310 310 308 305 314 313 306 318 318 323 329 338 340 342
182 189 199 207 227 243 254 276 288 276 280 284 286 290 296 304 308 307 306 304 302 299 297 294 294 297 301 305 305 301 301 302 299 306 316 304 316 317 321 324 341 343 340
183 193 204 210 233 246 259 293 296 282 281 289 292 293 296 300 312 314 309 306 306 309 312 307 306 307 312 313 314 310 312 312 311 315 328 311 312 316 314 315 333 340 338
184 187 201 215 233 250 272 289 296 278 283 293 297 296 298 305 313 313 309 306 307 314 319 318 317 320 321 325 329 322 313 308 310 310 335 325 314 324 316 313 325 329 331